Location: Arcones
(41.1182°N, 3.7238°W)
Time: 04:45:47
(UTC+00:00)

NOSS 2-3 (C) - Pass Details

Date: 11 December 2025
Orbit: 458 x 1718 km, 63.3° (Epoch: 13 January)

Event Time Altitude Azimuth Distance (km) Brightness Sun altitude
Rises 18:18:00 0° 225° (SW) 2,544 7.8 -16.7°
Reaches altitude 10° 18:20:12 10° 231° (SW) 1,617 6.7 -17.1°
Maximum altitude 18:23:34 51° 308° (NW) 588 3.6 -17.7°
Enters shadow 18:25:14 26° 12° (NNE) 953 4.3 -18.0°
